XE2OR-10 Weather Reports


Display with metric or nautical units.
time (UTC)temp
F
wind
direction
speed
MPH
gust
MPH
rain 1hr
in
rain 24hr
in
rain mn
in
humidity
%
barometer
mb
20260506123348 77 163 0.0 0.0 0.00 0.00 0.00 91 1012.8
20260506122849 77 142 1.0 2.0 0.00 0.00 0.00 90 1012.8
20260506122352 77 147 0.0 0.0 0.00 0.00 0.00 90 1012.8
20260506121848 77 152 0.0 0.0 0.00 0.00 0.00 90 1013.1
20260506121352 77 150 0.0 0.0 0.00 0.00 0.00 90 1012.9
20260506120849 77 143 0.0 0.0 0.00 0.00 0.00 90 1012.8
20260506120349 77 155 0.0 0.0 0.00 0.00 0.00 90 1012.8
20260506115849 77 146 0.0 0.0 0.00 0.00 0.00 90 1013.0
20260506115352 77 154 0.0 0.0 0.00 0.00 0.00 90 1012.8
20260506114849 77 153 0.0 0.0 0.00 0.00 0.00 90 1012.7
20260506114352 77 146 0.0 0.0 0.00 0.00 0.00 89 1012.4
20260506113849 77 98 1.0 2.0 0.00 0.00 0.00 89 1012.5
20260506113348 77 146 0.0 0.0 0.00 0.00 0.00 89 1012.3
20260506112849 78 148 0.0 0.0 0.00 0.00 0.00 89 1012.2
20260506112353 77 138 0.0 0.0 0.00 0.00 0.00 89 1012.3
20260506111849 78 122 0.0 0.0 0.00 0.00 0.00 89 1012.1
20260506111352 78 155 1.0 2.0 0.00 0.00 0.00 89 1012.3
20260506110848 78 137 0.0 0.0 0.00 0.00 0.00 89 1012.2
20260506110349 78 150 0.0 0.0 0.00 0.00 0.00 89 1012.0
20260506105848 78 143 1.0 2.0 0.00 0.00 0.00 89 1012.0
20260506105352 78 166 0.0 0.0 0.00 0.00 0.00 88 1011.8
20260506104848 78 169 1.0 2.0 0.00 0.00 0.00 88 1012.0
20260506104352 78 90 1.0 2.0 0.00 0.00 0.00 88 1011.9
20260506103848 78 155 0.0 0.0 0.00 0.00 0.00 88 1011.8
20260506103349 78 170 2.0 3.0 0.00 0.00 0.00 88 1011.6
20260506102848 78 145 0.0 0.0 0.00 0.00 0.00 88 1011.9
20260506102352 78 160 0.0 0.0 0.00 0.00 0.00 88 1011.7
20260506101849 78 164 2.0 3.0 0.00 0.00 0.00 87 1011.6
20260506101352 78 170 1.0 2.0 0.00 0.00 0.00 87 1011.5
20260506100849 78 127 1.0 2.0 0.00 0.00 0.00 87 1011.5
20260506100348 78 118 0.0 0.0 0.00 0.00 0.00 87 1011.5
20260506095849 78 110 2.0 3.0 0.00 0.00 0.00 87 1011.4
20260506095353 78 175 1.0 3.0 0.00 0.00 0.00 87 1011.7
20260506094849 78 143 0.0 0.0 0.00 0.00 0.00 87 1011.5
20260506094353 79 139 3.0 6.0 0.00 0.00 0.00 86 1011.5
20260506093849 79 128 1.0 2.0 0.00 0.00 0.00 86 1011.6
20260506093349 79 147 3.0 4.0 0.00 0.00 0.00 86 1011.6
20260506092849 79 121 3.0 4.0 0.00 0.00 0.00 86 1011.6
20260506092352 79 158 0.0 0.0 0.00 0.00 0.00 86 1011.7
20260506091848 79 142 1.0 2.0 0.00 0.00 0.00 86 1011.9
20260506091352 79 157 0.0 0.0 0.00 0.00 0.00 86 1011.7
20260506090848 79 152 0.0 0.0 0.00 0.00 0.00 86 1011.7
20260506090349 79 147 1.0 2.0 0.00 0.00 0.00 86 1011.6
20260506085848 79 149 0.0 0.0 0.00 0.00 0.00 86 1011.9
20260506085352 79 145 0.0 0.0 0.00 0.00 0.00 86 1011.6
20260506084849 79 135 0.0 0.0 0.00 0.00 0.00 86 1011.7
20260506084352 78 128 0.0 0.0 0.00 0.00 0.00 86 1011.5
20260506083849 78 134 0.0 0.0 0.00 0.00 0.00 86 1011.6
20260506083349 78 120 0.0 0.0 0.00 0.00 0.00 86 1011.6
20260506082849 78 143 0.0 0.0 0.00 0.00 0.00 86 1011.5
20260506082352 78 152 0.0 0.0 0.00 0.00 0.00 86 1011.5
20260506081849 78 145 2.0 4.0 0.00 0.00 0.00 86 1011.3
20260506081352 78 143 0.0 0.0 0.00 0.00 0.00 86 1011.6
20260506080849 78 142 0.0 0.0 0.00 0.00 0.00 86 1011.5
20260506080349 78 129 0.0 0.0 0.00 0.00 0.00 86 1011.2
20260506073349 79 140 0.0 0.0 0.00 0.00 0.00 84 1011.5
20260506072849 79 137 0.0 0.0 0.00 0.00 0.00 84 1011.2
20260506072352 79 153 1.0 2.0 0.00 0.00 0.00 84 1011.4
20260506071849 80 136 0.0 0.0 0.00 0.00 0.00 84 1011.4
20260506071352 80 154 1.0 2.0 0.00 0.00 0.00 84 1011.6
20260506070849 80 149 0.0 0.0 0.00 0.00 0.00 83 1011.5
20260506070349 80 110 0.0 0.0 0.00 0.00 0.00 83 1011.3
20260506062352 81 69 0.0 0.0 0.00 0.00 0.00 82 1011.1
20260506061848 81 132 0.0 0.0 0.00 0.00 0.00 82 1011.0
20260506061352 81 107 0.0 0.0 0.00 0.00 0.00 81 1011.1
20260506060849 82 84 0.0 0.0 0.00 0.00 0.00 81 1011.1
20260506060348 82 13 2.0 3.0 0.00 0.00 0.00 81 1011.2
20260506051352 83 77 0.0 0.0 0.00 0.00 0.00 79 1011.1
20260506050848 83 79 0.0 0.0 0.00 0.00 0.00 79 1011.2
20260506050349 83 93 0.0 0.0 0.00 0.00 0.00 79 1011.2
20260506044849 84 16 1.0 2.0 0.00 0.00 0.00 78 1011.1
20260506044352 84 7 2.0 2.0 0.00 0.00 0.00 77 1011.1
20260506043849 84 61 0.0 0.0 0.00 0.00 0.00 77 1011.1
20260506043348 84 86 1.0 2.0 0.00 0.00 0.00 77 1011.2
20260506042849 84 91 0.0 0.0 0.00 0.00 0.00 76 1011.1
20260506042352 84 90 0.0 0.0 0.00 0.00 0.00 76 1010.9
20260506041849 85 91 0.0 0.0 0.00 0.00 0.00 75 1011.0
20260506041352 85 80 0.0 0.0 0.00 0.00 0.00 75 1011.1
20260506040848 85 41 2.0 4.0 0.00 0.00 0.00 74 1010.9
20260506040349 85 70 0.0 0.0 0.00 0.00 0.00 74 1010.8
20260506035848 85 44 1.0 2.0 0.00 0.00 0.00 73 1010.8
20260506035352 85 11 0.0 0.0 0.00 0.00 0.00 73 1010.8
20260506034849 85 71 0.0 0.0 0.00 0.00 0.00 72 1010.7
20260506034352 85 5 2.0 3.0 0.00 0.00 0.00 72 1010.8
20260506033849 86 69 2.0 3.0 0.00 0.00 0.00 71 1010.7
20260506033348 86 56 0.0 0.0 0.00 0.00 0.00 71 1010.6
20260506032849 86 85 1.0 2.0 0.00 0.00 0.00 70 1010.3
20260506032352 86 23 1.0 2.0 0.00 0.00 0.00 70 1010.4
20260506031849 86 81 0.0 0.0 0.00 0.00 0.00 70 1010.2
20260506031352 86 34 1.0 2.0 0.00 0.00 0.00 69 1010.4
20260506030848 86 23 2.0 3.0 0.00 0.00 0.00 69 1010.5
20260506030349 87 30 1.0 2.0 0.00 0.00 0.00 69 1010.2
20260506025848 87 50 1.0 2.0 0.00 0.00 0.00 68 1010.3
20260506025352 87 42 1.0 2.0 0.00 0.00 0.00 68 1010.2
20260506024848 87 11 3.0 5.0 0.00 0.00 0.00 68 1009.8
20260506024352 87 29 2.0 3.0 0.00 0.00 0.00 68 1010.1
20260506023848 87 86 0.0 0.0 0.00 0.00 0.00 68 1009.9
20260506023349 87 85 0.0 0.0 0.00 0.00 0.00 68 1009.8
20260506022849 88 96 0.0 0.0 0.00 0.00 0.00 68 1010.1
20260506022352 88 19 2.0 3.0 0.00 0.00 0.00 67 1009.9
20260506021849 88 87 0.0 0.0 0.00 0.00 0.00 67 1009.7
20260506021352 88 49 1.0 2.0 0.00 0.00 0.00 67 1009.7
20260506020849 88 29 0.0 0.0 0.00 0.00 0.00 66 1009.7
20260506020348 88 59 0.0 0.0 0.00 0.00 0.00 66 1009.4
20260506015849 88 350 1.0 3.0 0.00 0.00 0.00 65 1009.3
20260506015352 89 89 0.0 0.0 0.00 0.00 0.00 65 1009.3
20260506014848 89 11 1.0 3.0 0.00 0.00 0.00 64 1009.3
20260506014352 89 101 0.0 0.0 0.00 0.00 0.00 64 1009.4
20260506013849 89 90 0.0 0.0 0.00 0.00 0.00 64 1009.3
20260506013349 89 99 0.0 0.0 0.00 0.00 0.00 63 1009.2
20260506012849 90 101 0.0 0.0 0.00 0.00 0.00 63 1009.0
20260506012352 90 59 0.0 0.0 0.00 0.00 0.00 63 1008.9
20260506011849 90 36 1.0 2.0 0.00 0.00 0.00 62 1008.8
20260506011352 90 96 0.0 0.0 0.00 0.00 0.00 62 1008.9
20260506010849 90 62 1.0 2.0 0.00 0.00 0.00 62 1008.7
20260506010348 91 58 0.0 0.0 0.00 0.00 0.00 61 1008.8
20260506005849 91 92 0.0 0.0 0.00 0.00 0.00 61 1008.8
20260506005352 92 30 1.0 2.0 0.00 0.00 0.00 59 1008.9
20260506004849 92 61 1.0 2.0 0.00 0.00 0.00 60 1009.0
20260506004353 92 350 3.0 3.0 0.00 0.00 0.00 59 1009.0
20260506003849 92 46 2.0 3.0 0.00 0.00 0.00 59 1008.9
20260506003349 92 111 0.0 0.0 0.00 0.00 0.00 60 1008.7
20260506002848 92 61 1.0 2.0 0.00 0.00 0.00 59 1009.1
20260506002352 92 87 1.0 2.0 0.00 0.00 0.00 59 1008.9
20260506001848 92 96 0.0 0.0 0.00 0.00 0.00 59 1008.9
20260506001352 92 96 0.0 0.0 0.00 0.00 0.00 58 1008.8
20260506000849 93 104 0.0 0.0 0.00 0.00 0.00 58 1008.9
20260506000349 93 105 0.0 0.0 0.00 0.00 0.00 58 1009.0
20260505235849 93 100 0.0 0.0 0.00 0.00 0.00 58 1008.8
20260505235352 93 111 0.0 0.0 0.00 0.00 0.00 57 1008.7
20260505234849 93 82 0.0 0.0 0.00 0.00 0.00 58 1008.6
20260505234352 93 17 1.0 3.0 0.00 0.00 0.00 58 1008.6
20260505233849 94 142 1.0 3.0 0.00 0.00 0.00 58 1008.6
20260505233349 93 25 4.0 6.0 0.00 0.00 0.00 58 1008.5
20260505232848 94 82 0.0 0.0 0.00 0.00 0.00 58 1008.6
20260505232352 94 62 1.0 2.0 0.00 0.00 0.00 58 1008.5
20260505231848 94 96 0.0 0.0 0.00 0.00 0.00 58 1008.5
20260505231352 94 110 0.0 0.0 0.00 0.00 0.00 59 1008.7
20260505230848 94 356 1.0 2.0 0.00 0.00 0.00 58 1008.6
20260505230349 94 103 1.0 3.0 0.00 0.00 0.00 58 1008.8
20260505225849 94 37 2.0 3.0 0.00 0.00 0.00 59 1008.8
20260505225352 94 47 1.0 2.0 0.00 0.00 0.00 59 1008.7
20260505224849 94 19 2.0 3.0 0.00 0.00 0.00 58 1008.7
20260505224353 94 68 1.0 2.0 0.00 0.00 0.00 59 1008.7
20260505223849 94 94 0.0 0.0 0.00 0.00 0.00 58 1008.7
20260505223349 93 152 0.0 0.0 0.00 0.00 0.00 58 1008.9
20260505222849 94 73 1.0 2.0 0.00 0.00 0.00 59 1008.7
20260505222352 94 74 0.0 0.0 0.00 0.00 0.00 60 1008.8
20260505221848 94 18 2.0 3.0 0.00 0.00 0.00 59 1008.9
20260505221352 94 151 1.0 2.0 0.00 0.00 0.00 59 1008.7
20260505220848 94 67 0.0 0.0 0.00 0.00 0.00 59 1008.9
20260505220349 95 170 0.0 0.0 0.00 0.00 0.00 58 1009.0
20260505215849 95 58 1.0 2.0 0.00 0.00 0.00 58 1009.0
20260505215352 95 172 2.0 4.0 0.00 0.00 0.00 59 1008.8
20260505214849 95 70 2.0 4.0 0.00 0.00 0.00 59 1009.0
20260505214353 96 168 0.0 0.0 0.00 0.00 0.00 59 1009.0
20260505213849 96 105 1.0 2.0 0.00 0.00 0.00 58 1009.2
20260505213349 95 138 0.0 0.0 0.00 0.00 0.00 60 1009.3
20260505212849 94 26 1.0 2.0 0.00 0.00 0.00 62 1009.4
20260505212352 95 275 1.0 2.0 0.00 0.00 0.00 61 1009.3
20260505211848 94 23 2.0 3.0 0.00 0.00 0.00 61 1009.6
20260505211352 94 77 4.0 5.0 0.00 0.00 0.00 61 1009.6
20260505210848 93 7 4.0 5.0 0.00 0.00 0.00 61 1009.7
20260505210349 94 72 2.0 3.0 0.00 0.00 0.00 61 1009.8
20260505205849 93 16 4.0 6.0 0.00 0.00 0.00 62 1010.0
20260505205352 95 9 5.0 7.0 0.00 0.00 0.00 61 1009.9
20260505204849 95 152 0.0 0.0 0.00 0.00 0.00 59 1009.8
20260505204352 94 147 2.0 3.0 0.00 0.00 0.00 59 1009.9
20260505203849 93 36 3.0 4.0 0.00 0.00 0.00 61 1010.0
20260505203348 93 146 1.0 2.0 0.00 0.00 0.00 60 1010.3
20260505202849 94 129 0.0 0.0 0.00 0.00 0.00 60 1010.3
20260505202353 94 60 1.0 2.0 0.00 0.00 0.00 58 1010.1
20260505201849 94 352 1.0 2.0 0.00 0.00 0.00 61 1010.4
20260505201352 94 337 6.0 7.0 0.00 0.00 0.00 62 1010.5
20260505200849 94 184 1.0 2.0 0.00 0.00 0.00 61 1010.6
20260505200348 93 117 0.0 0.0 0.00 0.00 0.00 63 1010.6
20260505195849 94 110 1.0 3.0 0.00 0.00 0.00 62 1010.6
20260505195352 94 140 2.0 4.0 0.00 0.00 0.00 62 1010.7
20260505194849 92 96 0.0 0.0 0.00 0.00 0.00 65 1010.6
20260505194353 92 80 0.0 0.0 0.00 0.00 0.00 63 1010.7
20260505193849 94 158 0.0 0.0 0.00 0.00 0.00 63 1010.9
20260505193349 93 124 0.0 0.0 0.00 0.00 0.00 62 1010.8
20260505192849 93 151 0.0 0.0 0.00 0.00 0.00 63 1010.9
20260505192353 92 121 0.0 0.0 0.00 0.00 0.00 64 1010.8
20260505191849 93 181 1.0 2.0 0.00 0.00 0.00 64 1011.0
20260505191352 92 172 0.0 0.0 0.00 0.00 0.00 65 1011.3
20260505190849 91 189 1.0 2.0 0.00 0.00 0.00 67 1011.3
20260505190348 90 161 1.0 2.0 0.00 0.00 0.00 68 1011.1
20260505185849 91 152 2.0 4.0 0.00 0.00 0.00 67 1011.6
20260505185352 91 122 3.0 4.0 0.00 0.00 0.00 67 1011.3
20260505184849 89 87 0.0 0.0 0.00 0.00 0.00 68 1011.6
20260505184353 90 150 1.0 3.0 0.00 0.00 0.00 68 1011.5
20260505183849 90 133 0.0 0.0 0.00 0.00 0.00 68 1011.8
20260505183348 89 199 1.0 2.0 0.00 0.00 0.00 68 1011.6
20260505182849 88 74 0.0 0.0 0.00 0.00 0.00 69 1011.7
20260505182352 90 154 0.0 0.0 0.00 0.00 0.00 68 1011.8
20260505181849 89 75 1.0 2.0 0.00 0.00 0.00 71 1011.9
20260505181352 88 142 4.0 5.0 0.00 0.00 0.00 70 1012.0
20260505180849 89 173 0.0 0.0 0.00 0.00 0.00 70 1012.1
20260505180349 89 209 0.0 0.0 0.00 0.00 0.00 71 1012.1
20260505175849 88 110 0.0 0.0 0.00 0.00 0.00 72 1012.1
20260505175352 86 21 1.0 3.0 0.00 0.00 0.00 73 1012.2
20260505174848 87 155 0.0 0.0 0.00 0.00 0.00 72 1012.2
20260505174352 88 156 2.0 4.0 0.00 0.00 0.00 74 1012.5
20260505173848 87 85 0.0 0.0 0.00 0.00 0.00 72 1012.6
20260505173349 87 150 0.0 0.0 0.00 0.00 0.00 73 1012.4
20260505172848 86 169 1.0 2.0 0.00 0.00 0.00 73 1012.7
20260505172352 86 120 0.0 0.0 0.00 0.00 0.00 74 1012.8
20260505171848 85 132 0.0 0.0 0.00 0.00 0.00 74 1012.8
20260505171353 85 91 1.0 3.0 0.00 0.00 0.00 75 1012.7
20260505170849 85 198 0.0 0.0 0.00 0.00 0.00 76 1012.8
20260505170349 84 170 1.0 2.0 0.00 0.00 0.00 77 1012.9
20260505165849 83 51 1.0 3.0 0.00 0.00 0.00 78 1012.6
20260505165352 84 30 1.0 2.0 0.00 0.00 0.00 77 1012.8
20260505164849 84 76 0.0 0.0 0.00 0.00 0.00 77 1012.7
20260505164352 83 63 1.0 2.0 0.00 0.00 0.00 78 1012.5
20260505163849 84 145 0.0 0.0 0.00 0.00 0.00 78 1012.7
20260505163348 82 66 0.0 0.0 0.00 0.00 0.00 79 1012.5
20260505162849 84 358 1.0 3.0 0.00 0.00 0.00 77 1012.5
20260505162352 84 174 1.0 2.0 0.00 0.00 0.00 77 1012.5
20260505161849 82 158 0.0 0.0 0.00 0.00 0.00 79 1012.6
20260505161352 83 139 2.0 3.0 0.00 0.00 0.00 79 1012.6
20260505160849 82 153 0.0 0.0 0.00 0.00 0.00 80 1012.5
20260505160348 82 149 0.0 0.0 0.00 0.00 0.00 78 1012.3
20260505153349 81 118 0.0 0.0 0.00 0.00 0.00 80 1012.7
20260505152849 81 114 0.0 0.0 0.00 0.00 0.00 80 1012.3
20260505152352 81 234 2.0 4.0 0.00 0.00 0.00 81 1012.6
20260505151849 80 87 0.0 0.0 0.00 0.00 0.00 81 1012.6
20260505151352 79 142 3.0 4.0 0.00 0.00 0.00 82 1012.6
20260505150848 78 135 1.0 2.0 0.00 0.00 0.00 83 1012.7
20260505150349 78 121 0.0 0.0 0.00 0.00 0.00 83 1012.4
20260505140349 75 140 1.0 2.0 0.00 0.00 0.00 87 1012.7
20260505124849 69 168 1.0 2.0 0.00 0.00 0.00 96 1012.4
20260505124352 69 146 0.0 0.0 0.00 0.00 0.00 96 1012.3
20260505123848 69 143 0.0 0.0 0.00 0.00 0.00 96 1012.2